Bookmark and Share
Track history (hours):
 

Antares

Last reported at 2014-Apr-23 14:33 UTC. Time now 2014-Apr-23 15:21 UTC.
Position N 53°34' E 008°32'.

Length 79 m; draft 5.9 m.

Type: Ship. MMSI: 218777000.

NotesDate/timePositionNaut miles runAvg speedWind from/ knotsBaromVisibWave heightAir tempDewpointWater temp
2014-Apr-23 14:33N 53°34' E 008°32'1212.0
2014-Apr-23 13:34N 53°42' E 008°18'1211.7
2014-Apr-23 12:33N 53°50' E 008°04'4 3.5
2014-Apr-23 11:32N 53°52' E 007°59'0 0.1
2014-Apr-23 10:32N 53°53' E 007°59'0 0.0
2014-Apr-23 09:32N 53°53' E 007°59'0 0.0
2014-Apr-23 08:32N 53°53' E 007°59'0 0.0
2014-Apr-23 07:32N 53°52' E 007°59'6 5.9
2014-Apr-23 06:33N 53°57' E 008°04'1110.9
2014-Apr-23 05:33N 53°59' E 008°22'10 9.8
2014-Apr-23 04:33N 53°57' E 008°39'8 7.9
2014-Apr-23 03:33N 53°51' E 008°47'8 8.2
2014-Apr-23 02:33N 53°51' E 009°01'1110.5
2014-Apr-23 01:33N 53°52' E 009°18'1212.1
2014-Apr-23 00:34N 53°42' E 009°30'1211.6
2014-Apr-22 23:33N 53°34' E 009°44'9 8.7
2014-Apr-22 22:33N 53°30' E 009°58'0 0.0
2014-Apr-22 21:26N 53°30' E 009°58'0 0.0
2014-Apr-22 20:29N 53°30' E 009°58'0 0.0
2014-Apr-22 19:29N 53°30' E 009°58'0 0.0
2014-Apr-22 18:32N 53°30' E 009°58'0 0.0
2014-Apr-22 17:29N 53°30' E 009°58'0 0.0
2014-Apr-22 16:29N 53°30' E 009°58'0 0.0
2014-Apr-22 15:32N 53°30' E 009°58'0 0.3
2014-Apr-22 14:33N 53°30' E 009°57'2 1.4
2014-Apr-22 13:27N 53°32' E 009°58'0 0.0
2014-Apr-22 12:27N 53°32' E 009°58'0 0.0
2014-Apr-22 11:30N 53°32' E 009°58'0 0.0
2014-Apr-22 10:27N 53°32' E 009°58'0 0.0
2014-Apr-22 09:21N 53°32' E 009°58'0 0.0
2014-Apr-22 08:33N 53°32' E 009°58'0 0.0
2014-Apr-22 07:33N 53°32' E 009°58'0 0.0
2014-Apr-22 06:33N 53°32' E 009°58'0 0.0
2014-Apr-22 05:33N 53°32' E 009°58'0 0.0
2014-Apr-22 04:21N 53°32' E 009°58'0 0.0
2014-Apr-22 03:30N 53°32' E 009°58'0 0.0
2014-Apr-22 02:33N 53°32' E 009°58'0 0.0
2014-Apr-22 01:33N 53°32' E 009°58'0 0.0
2014-Apr-22 00:33N 53°32' E 009°58'0 0.0
2014-Apr-21 23:33N 53°32' E 009°58'0 0.0
2014-Apr-21 22:33N 53°32' E 009°58'0 0.0
2014-Apr-21 21:33N 53°32' E 009°58'0 0.0
2014-Apr-21 20:33N 53°32' E 009°58'0 0.0
2014-Apr-21 19:30N 53°32' E 009°58'0 0.0
2014-Apr-21 18:33N 53°32' E 009°58'0 0.0
2014-Apr-21 17:33N 53°32' E 009°58'0 0.0
2014-Apr-21 16:30N 53°32' E 009°58'1 1.1
2014-Apr-21 15:33N 53°33' E 009°56'0 0.0
2014-Apr-21 14:33N 53°33' E 009°56'0 0.0
2014-Apr-21 13:33N 53°33' E 009°56'0 0.0
2014-Apr-21 12:33N 53°33' E 009°56'0 0.0
2014-Apr-21 11:33N 53°33' E 009°56'0 0.0
2014-Apr-21 10:33N 53°33' E 009°56'0 0.0
2014-Apr-21 09:33N 53°33' E 009°56'0 0.0
2014-Apr-21 08:29N 53°33' E 009°56'1 1.4
2014-Apr-21 07:33N 53°32' E 009°54'1 0.5
2014-Apr-21 06:25N 53°32' E 009°55'0 0.0
2014-Apr-21 05:25N 53°32' E 009°55'0 0.0
2014-Apr-21 04:28N 53°32' E 009°55'0 0.0
2014-Apr-21 03:31N 53°32' E 009°55'0 0.0
2014-Apr-21 02:31N 53°32' E 009°55'0 0.0
2014-Apr-21 01:31N 53°32' E 009°55'0 0.0
2014-Apr-21 00:31N 53°32' E 009°55'0 0.0
2014-Apr-20 23:31N 53°32' E 009°55'1 1.1
2014-Apr-20 22:33N 53°31' E 009°56'1 1.3
2014-Apr-20 21:33N 53°30' E 009°58'0 0.0
2014-Apr-20 20:33N 53°30' E 009°58'0 0.0
2014-Apr-20 19:33N 53°30' E 009°58'0 0.4
2014-Apr-20 18:33N 53°30' E 009°57'0 0.0
2014-Apr-20 17:33N 53°30' E 009°57'0 0.0
2014-Apr-20 16:33N 53°30' E 009°57'0 0.0
2014-Apr-20 15:34N 53°30' E 009°57'0 0.0
2014-Apr-20 14:33N 53°30' E 009°57'0 0.0
2014-Apr-20 13:33N 53°30' E 009°57'0 0.0
2014-Apr-20 12:34N 53°30' E 009°57'0 0.0
2014-Apr-20 11:33N 53°30' E 009°57'0 0.0
2014-Apr-20 10:33N 53°30' E 009°57'0 0.0
2014-Apr-20 09:33N 53°30' E 009°57'0 0.0
2014-Apr-20 08:33N 53°30' E 009°57'1 0.7
2014-Apr-20 07:34N 53°31' E 009°57'1 1.2
2014-Apr-20 06:31N 53°32' E 009°58'0 0.0
2014-Apr-20 05:28N 53°32' E 009°58'0 0.0
2014-Apr-20 04:31N 53°32' E 009°58'0 0.0
2014-Apr-20 03:31N 53°32' E 009°58'0 0.0
2014-Apr-20 02:31N 53°32' E 009°58'0 0.0
2014-Apr-20 01:31N 53°32' E 009°58'0 0.0
2014-Apr-20 00:25N 53°32' E 009°58'0 0.0
2014-Apr-19 23:31N 53°32' E 009°58'1 0.7
2014-Apr-19 22:33N 53°32' E 009°57'2 2.0
2014-Apr-19 21:26N 53°30' E 009°58'0 0.0
2014-Apr-19 20:32N 53°30' E 009°58'0 0.0
2014-Apr-19 19:26N 53°30' E 009°58'0 0.0
2014-Apr-19 18:32N 53°30' E 009°58'0 0.0
2014-Apr-19 17:26N 53°30' E 009°58'0 0.0
2014-Apr-19 16:32N 53°30' E 009°58'0 0.0
2014-Apr-19 15:32N 53°30' E 009°58'1 0.9
2014-Apr-19 14:33N 53°31' E 009°57'2 1.7
2014-Apr-19 13:32N 53°33' E 009°56'0 0.0
2014-Apr-19 12:29N 53°33' E 009°56'0 0.0
2014-Apr-19 11:32N 53°33' E 009°56'0 0.0
2014-Apr-19 10:29N 53°33' E 009°56'0 0.0
2014-Apr-19 09:26N 53°33' E 009°56'0 0.2
2014-Apr-19 08:31N 53°32' E 009°56'2 2.3
2014-Apr-19 07:34N 53°30' E 009°57'0 0.0
2014-Apr-19 06:33N 53°30' E 009°57'0 0.0
2014-Apr-19 05:34N 53°30' E 009°57'1 0.5
2014-Apr-19 04:28N 53°30' E 009°58'0 0.0
2014-Apr-19 03:28N 53°30' E 009°58'0 0.0
2014-Apr-19 02:22N 53°30' E 009°58'0 0.0
2014-Apr-19 01:31N 53°30' E 009°58'0 0.0
2014-Apr-19 00:28N 53°30' E 009°58'0 0.0
2014-Apr-18 23:22N 53°30' E 009°58'0 0.0
2014-Apr-18 22:28N 53°30' E 009°58'1 0.7
2014-Apr-18 21:33N 53°31' E 009°57'1 1.3
2014-Apr-18 20:30N 53°32' E 009°58'0 0.0
2014-Apr-18 19:24N 53°32' E 009°58'0 0.0
2014-Apr-18 18:33N 53°32' E 009°58'0 0.0
2014-Apr-18 17:30N 53°32' E 009°58'0 0.3
2014-Apr-18 16:33N 53°32' E 009°57'10 9.6
2014-Apr-18 15:33N 53°34' E 009°41'1111.5
2014-Apr-18 14:34N 53°43' E 009°29'1313.0
2014-Apr-18 13:33N 53°53' E 009°15'3 3.3
2014-Apr-18 12:33N 53°54' E 009°10'7 6.6
2014-Apr-18 11:33N 53°59' E 009°17'3 3.2
2014-Apr-18 10:33N 54°02' E 009°18'6 6.3
2014-Apr-18 09:33N 54°08' E 009°21'9 8.7
2014-Apr-18 08:33N 54°12' E 009°34'54 6.6
2014-Apr-18 00:20N 54°36' E 010°58'8 9.9
2014-Apr-17 23:33N 54°36' E 011°12'1110.8
2014-Apr-17 22:33N 54°31' E 011°28'1110.5
2014-Apr-17 21:33N 54°24' E 011°43'1010.3
2014-Apr-17 20:33N 54°16' E 011°54'2 2.2
2014-Apr-17 19:31N 54°14' E 011°55'0 0.0
2014-Apr-17 18:25N 54°14' E 011°55'0 0.0
2014-Apr-17 17:31N 54°14' E 011°55'0 0.0
2014-Apr-17 16:28N 54°14' E 011°55'0 0.0
2014-Apr-17 15:31N 54°14' E 011°55'0 0.0
2014-Apr-17 14:25N 54°14' E 011°55'0 0.0
2014-Apr-17 13:31N 54°14' E 011°55'0 0.0
2014-Apr-17 12:33N 54°14' E 011°55'0 0.0
2014-Apr-17 11:33N 54°14' E 011°55'0 0.0
2014-Apr-17 10:33N 54°14' E 011°55'0 0.0
2014-Apr-17 09:33N 54°14' E 011°55'2 2.3
2014-Apr-17 08:33N 54°14' E 011°59'7 6.6
2014-Apr-17 07:32N 54°09' E 012°08'0 0.0
2014-Apr-17 06:17N 54°09' E 012°08'0 0.0
2014-Apr-17 05:32N 54°09' E 012°08'0 0.0
2014-Apr-17 04:32N 54°09' E 012°08'0 0.0
2014-Apr-17 03:32N 54°09' E 012°08'0 0.0
2014-Apr-17 02:29N 54°09' E 012°08'0 0.1
2014-Apr-17 01:20N 54°09' E 012°08'0 0.0
2014-Apr-17 00:32N 54°09' E 012°08'0 0.0
2014-Apr-16 23:32N 54°09' E 012°08'0 0.0
2014-Apr-16 22:32N 54°09' E 012°08'0 0.0
2014-Apr-16 21:32N 54°09' E 012°08'0 0.0
2014-Apr-16 20:29N 54°09' E 012°08'0 0.0
2014-Apr-16 19:32N 54°09' E 012°08'0 0.0
2014-Apr-16 18:29N 54°09' E 012°08'0 0.0
2014-Apr-16 17:32N 54°09' E 012°08'1 1.0
2014-Apr-16 16:32N 54°10' E 012°06'6 6.6
2014-Apr-16 15:34N 54°15' E 011°59'0 0.0
2014-Apr-16 14:31N 54°15' E 011°59'0 0.0
2014-Apr-16 13:33N 54°15' E 011°59'6 6.2
2014-Apr-16 12:33N 54°18' E 011°51'1111.0
2014-Apr-16 11:33N 54°24' E 011°35'1111.4
2014-Apr-16 10:33N 54°32' E 011°20'61 7.7
2014-Apr-16 02:33N 54°17' E 009°38'7 7.4
2014-Apr-16 01:33N 54°11' E 009°30'7 7.5
2014-Apr-16 00:33N 54°06' E 009°20'8 7.9
2014-Apr-15 23:33N 53°59' E 009°16'3 3.3
2014-Apr-15 22:34N 53°56' E 009°13'2 1.7
2014-Apr-15 21:33N 53°55' E 009°11'0 0.0
2014-Apr-15 20:33N 53°55' E 009°11'0 0.0
2014-Apr-15 19:33N 53°55' E 009°11'0 0.0
2014-Apr-15 18:33N 53°55' E 009°11'0 0.0
2014-Apr-15 17:33N 53°55' E 009°11'0 0.0
2014-Apr-15 16:33N 53°55' E 009°11'0 0.0
2014-Apr-15 15:30N 53°55' E 009°11'0 0.0
2014-Apr-15 14:30N 53°55' E 009°11'0 0.0
2014-Apr-15 12:33N 53°55' E 009°11'0 0.0
2014-Apr-15 11:30N 53°55' E 009°11'0 0.0
2014-Apr-15 10:33N 53°55' E 009°11'0 0.0
2014-Apr-15 09:33N 53°55' E 009°11'0 0.0
2014-Apr-15 08:33N 53°55' E 009°11'2 1.8
2014-Apr-15 07:34N 53°54' E 009°09'1 0.6
2014-Apr-15 06:34N 53°53' E 009°09'3 2.8
2014-Apr-15 05:34N 53°53' E 009°13'17 8.3
2014-Apr-15 03:31N 53°39' E 009°31'0 0.0
2014-Apr-15 00:31N 53°39' E 009°31'0 0.0
2014-Apr-14 23:31N 53°39' E 009°31'0 0.0
2014-Apr-14 20:34N 53°39' E 009°31'0 0.0
2014-Apr-14 19:34N 53°39' E 009°31'0 0.0
2014-Apr-14 18:34N 53°39' E 009°31'0 0.0
2014-Apr-14 17:34N 53°39' E 009°31'2 1.2
2014-Apr-14 15:33N 53°37' E 009°33'10 9.9
2014-Apr-14 14:34N 53°33' E 009°48'4 0.6
2014-Apr-14 08:31N 53°32' E 009°54'3 0.3
2014-Apr-13 22:32N 53°30' E 009°58'0 0.0
2014-Apr-13 21:32N 53°30' E 009°58'0 0.0
2014-Apr-13 20:32N 53°30' E 009°58'0 0.0
2014-Apr-13 19:32N 53°30' E 009°58'0 0.0
2014-Apr-13 18:32N 53°30' E 009°58'0 0.0
2014-Apr-13 17:29N 53°30' E 009°58'0 0.0
2014-Apr-13 16:32N 53°30' E 009°58'0 0.2
2014-Apr-13 15:32N 53°30' E 009°58'2 1.6
2014-Apr-13 14:34N 53°32' E 009°58'  

Dump ship's entire track history

sailing weather and tide predictions

Antares — DFJQ — position and weather